• In Österreich
  • Länderverzeichnis
  • Für 7 Tage
  • Wassertemperatur
  • Satellitenkarten
  • Wetterkarte
  • News
  • Widgets
  • user-avatar
    Anmelden

    Stündliche Wetter Leicester

    Heute, 21 April, Samstag

    Zeit Temperatur Niederschläge Wind Luftdruck Luftfeuchtigkeit
    00:00 +10°C° 0 mm 2 m/S 762 mmHg 69%
    01:00 +10°C° 0 mm 2 m/S 761 mmHg 69%
    02:00 +9°C° 0 mm 2 m/S 761 mmHg 70%
    03:00 +9°C° 0 mm 2 m/S 761 mmHg 71%
    04:00 +9°C° 0 mm 2 m/S 761 mmHg 74%
    05:00 +9°C° 0 mm 2 m/S 761 mmHg 76%
    06:00 +10°C° 0 mm 2 m/S 760 mmHg 79%
    07:00 +12°C° 0 mm 2 m/S 760 mmHg 78%
    08:00 +14°C° 0 mm 2 m/S 760 mmHg 78%
    09:00 +16°C° 0 mm 3 m/S 760 mmHg 78%
    10:00 +17°C° 0 mm 3 m/S 760 mmHg 76%
    11:00 +19°C° 0 mm 3 m/S 759 mmHg 74%
    12:00 +20°C° 0 mm 3 m/S 759 mmHg 72%
    13:00 +20°C° 0,2 mm 3 m/S 758 mmHg 73%
    14:00 +21°C° 0,2 mm 3 m/S 757 mmHg 74%
    15:00 +21°C° 0,2 mm 4 m/S 757 mmHg 75%
    16:00 +20°C° 0,7 mm 4 m/S 756 mmHg 78%
    17:00 +19°C° 0,7 mm 4 m/S 756 mmHg 81%
    18:00 +19°C° 0,7 mm 4 m/S 755 mmHg 84%
    19:00 +18°C° 0,4 mm 4 m/S 755 mmHg 86%
    20:00 +17°C° 0,4 mm 4 m/S 755 mmHg 88%
    21:00 +15°C° 0,4 mm 4 m/S 754 mmHg 90%
    22:00 +14°C° 0,5 mm 3 m/S 754 mmHg 91%
    23:00 +13°C° 0,5 mm 3 m/S 754 mmHg 93%

    Morgen, 22 April, Sonntag

    Zeit Temperatur Niederschläge Wind Luftdruck Luftfeuchtigkeit
    00:00 +13°C° 0,5 mm 3 m/S 753 mmHg 94%
    01:00 +12°C° 0 mm 3 m/S 753 mmHg 95%
    02:00 +12°C° 0 mm 3 m/S 752 mmHg 96%
    03:00 +11°C° 0 mm 3 m/S 752 mmHg 96%
    04:00 +12°C° 0 mm 3 m/S 752 mmHg 96%
    05:00 +12°C° 0 mm 3 m/S 752 mmHg 96%
    06:00 +13°C° 0 mm 2 m/S 751 mmHg 96%
    07:00 +13°C° 0 mm 3 m/S 751 mmHg 92%
    08:00 +14°C° 0 mm 3 m/S 751 mmHg 88%
    09:00 +15°C° 0 mm 4 m/S 751 mmHg 83%
    10:00 +17°C° 0 mm 4 m/S 751 mmHg 79%
    11:00 +17°C° 0 mm 4 m/S 751 mmHg 74%
    12:00 +16°C° 0 mm 5 m/S 751 mmHg 70%
    13:00 +15°C° 0,2 mm 5 m/S 751 mmHg 74%
    14:00 +14°C° 0,2 mm 5 m/S 751 mmHg 77%
    15:00 +14°C° 0,2 mm 5 m/S 751 mmHg 81%
    16:00 +13°C° 0 mm 5 m/S 751 mmHg 81%
    17:00 +13°C° 0 mm 4 m/S 751 mmHg 81%
    18:00 +13°C° 0 mm 4 m/S 751 mmHg 81%
    19:00 +12°C° 0 mm 4 m/S 752 mmHg 83%
    20:00 +10°C° 0 mm 4 m/S 752 mmHg 84%
    21:00 +8°C° 0 mm 4 m/S 753 mmHg 86%
    22:00 +8°C° 0 mm 4 m/S 753 mmHg 87%
    23:00 +7°C° 0 mm 4 m/S 753 mmHg 88%

    übermorgen, 23 April, Montag

    Zeit Temperatur Niederschläge Wind Luftdruck Luftfeuchtigkeit
    00:00 +7°C° 0 mm 4 m/S 753 mmHg 90%
    01:00 +6°C° 0 mm 4 m/S 753 mmHg 91%
    02:00 +6°C° 0 mm 4 m/S 754 mmHg 92%
    03:00 +6°C° 0 mm 4 m/S 754 mmHg 93%
    04:00 +6°C° 0 mm 4 m/S 754 mmHg 92%
    05:00 +6°C° 0 mm 4 m/S 754 mmHg 91%
    06:00 +6°C° 0 mm 4 m/S 754 mmHg 90%
    07:00 +7°C° 0 mm 4 m/S 755 mmHg 85%
    08:00 +9°C° 0 mm 5 m/S 755 mmHg 79%
    09:00 +10°C° 0 mm 5 m/S 755 mmHg 74%
    10:00 +12°C° 0 mm 5 m/S 755 mmHg 72%
    11:00 +12°C° 0 mm 5 m/S 755 mmHg 70%
    12:00 +13°C° 0 mm 5 m/S 755 mmHg 68%
    13:00 +14°C° 0 mm 5 m/S 755 mmHg 68%
    14:00 +14°C° 0 mm 6 m/S 755 mmHg 69%
    15:00 +15°C° 0 mm 6 m/S 755 mmHg 69%
    16:00 +14°C° 0 mm 6 m/S 754 mmHg 72%
    17:00 +14°C° 0 mm 6 m/S 754 mmHg 76%
    18:00 +13°C° 0 mm 6 m/S 754 mmHg 79%
    19:00 +12°C° 0,1 mm 7 m/S 754 mmHg 81%
    20:00 +11°C° 0,1 mm 7 m/S 754 mmHg 83%
    21:00 +11°C° 0,1 mm 8 m/S 753 mmHg 84%
    22:00 +11°C° 0,1 mm 8 m/S 753 mmHg 85%
    23:00 +11°C° 0,1 mm 7 m/S 753 mmHg 86%

    24 April, Dienstag

    Zeit Temperatur Niederschläge Wind Luftdruck Luftfeuchtigkeit
    00:00 +11°C° 0,1 mm 7 m/S 753 mmHg 88%
    01:00 +11°C° 0 mm 6 m/S 753 mmHg 88%
    02:00 +11°C° 0 mm 6 m/S 753 mmHg 89%
    03:00 +12°C° 0 mm 5 m/S 753 mmHg 90%
    04:00 +12°C° 0 mm 5 m/S 753 mmHg 91%
    05:00 +12°C° 0 mm 4 m/S 753 mmHg 92%
    06:00 +11°C° 0 mm 4 m/S 753 mmHg 92%
    07:00 +12°C° 0,2 mm 4 m/S 753 mmHg 92%
    08:00 +12°C° 0,2 mm 4 m/S 753 mmHg 92%
    09:00 +12°C° 0,2 mm 4 m/S 753 mmHg 92%
    10:00 +12°C° 0,3 mm 4 m/S 753 mmHg 92%
    11:00 +12°C° 0,3 mm 4 m/S 753 mmHg 92%
    12:00 +12°C° 0,3 mm 4 m/S 753 mmHg 91%
    13:00 +12°C° 0,4 mm 4 m/S 753 mmHg 91%
    14:00 +11°C° 0,4 mm 3 m/S 753 mmHg 91%
    15:00 +11°C° 0,4 mm 3 m/S 752 mmHg 91%
    16:00 +12°C° 0 mm 2 m/S 752 mmHg 89%
    17:00 +12°C° 0 mm 2 m/S 752 mmHg 88%
    18:00 +12°C° 0 mm 1 m/S 752 mmHg 87%
    19:00 +12°C° 0,3 mm 1 m/S 752 mmHg 88%
    20:00 +11°C° 0,3 mm 1 m/S 752 mmHg 89%
    21:00 +10°C° 0,3 mm 1 m/S 752 mmHg 91%
    22:00 +10°C° 0,3 mm 1 m/S 752 mmHg 91%
    23:00 +10°C° 0,3 mm 1 m/S 752 mmHg 91%

    25 April, Mittwoch

    Zeit Temperatur Niederschläge Wind Luftdruck Luftfeuchtigkeit
    00:00 +10°C° 0,3 mm 1 m/S 752 mmHg 91%
    01:00 +9°C° 0,1 mm 1 m/S 752 mmHg 91%
    02:00 +9°C° 0,1 mm 1 m/S 752 mmHg 92%
    03:00 +8°C° 0,1 mm 1 m/S 752 mmHg 92%
    04:00 +8°C° 0 mm 1 m/S 752 mmHg 92%
    05:00 +7°C° 0 mm 2 m/S 752 mmHg 92%
    06:00 +7°C° 0 mm 2 m/S 752 mmHg 93%
    07:00 +8°C° 0,1 mm 3 m/S 752 mmHg 89%
    08:00 +10°C° 0,1 mm 3 m/S 752 mmHg 85%
    09:00 +11°C° 0,1 mm 4 m/S 753 mmHg 81%
    10:00 +12°C° 0,4 mm 5 m/S 753 mmHg 76%
    11:00 +11°C° 0,4 mm 6 m/S 753 mmHg 72%
    12:00 +12°C° 0,4 mm 7 m/S 753 mmHg 68%
    13:00 +12°C° 0,2 mm 7 m/S 753 mmHg 67%
    14:00 +12°C° 0,2 mm 7 m/S 752 mmHg 66%
    15:00 +11°C° 0,2 mm 8 m/S 752 mmHg 65%
    16:00 +11°C° 0,1 mm 7 m/S 753 mmHg 68%
    17:00 +10°C° 0,1 mm 6 m/S 753 mmHg 70%
    18:00 +9°C° 0,1 mm 5 m/S 753 mmHg 73%
    19:00 +8°C° 0 mm 5 m/S 753 mmHg 75%
    20:00 +7°C° 0 mm 5 m/S 754 mmHg 77%
    21:00 +6°C° 0 mm 4 m/S 754 mmHg 79%
    22:00 +6°C° 0 mm 4 m/S 755 mmHg 80%
    23:00 +5°C° 0 mm 5 m/S 755 mmHg 80%

    26 April, Donnerstag

    Zeit Temperatur Niederschläge Wind Luftdruck Luftfeuchtigkeit
    00:00 +5°C° 0 mm 5 m/S 755 mmHg 81%
    01:00 +5°C° 0 mm 5 m/S 755 mmHg 82%
    02:00 +3°C° 0 mm 5 m/S 755 mmHg 83%
    03:00 +3°C° 0 mm 5 m/S 755 mmHg 83%
    04:00 +3°C° 0 mm 5 m/S 755 mmHg 83%
    05:00 +3°C° 0 mm 5 m/S 756 mmHg 82%
    06:00 +3°C° 0 mm 5 m/S 756 mmHg 81%
    07:00 +4°C° 0 mm 6 m/S 756 mmHg 77%
    08:00 +7°C° 0 mm 6 m/S 756 mmHg 72%
    09:00 +8°C° 0 mm 7 m/S 757 mmHg 68%
    10:00 +8°C° 0,3 mm 7 m/S 757 mmHg 65%
    11:00 +9°C° 0,3 mm 7 m/S 757 mmHg 63%
    12:00 +10°C° 0,3 mm 7 m/S 757 mmHg 60%
    13:00 +10°C° 0,1 mm 7 m/S 757 mmHg 59%
    14:00 +10°C° 0,1 mm 7 m/S 757 mmHg 58%
    15:00 +10°C° 0,1 mm 7 m/S 757 mmHg 57%
    16:00 +10°C° 0 mm 7 m/S 757 mmHg 61%
    17:00 +9°C° 0 mm 6 m/S 757 mmHg 65%
    18:00 +8°C° 0 mm 5 m/S 758 mmHg 70%
    19:00 +7°C° 0 mm 5 m/S 758 mmHg 72%
    20:00 +6°C° 0 mm 5 m/S 759 mmHg 74%
    21:00 +5°C° 0 mm 5 m/S 760 mmHg 76%
    22:00 +5°C° 0 mm 5 m/S 760 mmHg 78%
    23:00 +5°C° 0 mm 4 m/S 760 mmHg 81%
    Mehr zeigen